Temp
75 75 75 75 76 76 75 74 75 74 75 75 74 74 74 74 75 74 74 74 74 74 73 73 74 73 74 74 74 76 75 72 73 73 73 72 72 71 71 72 72 74
74 75 75 75 75 75 75 74 73 74 74 74 75 75 74 74 74 74 74 74 74 74 74 74 74 74 74 75 74 74 74 73 72 74 72 72 72 72 70 71 71 73
74 73 73 73 73 73 73 73 71 73 74 75 74 74 74 74 74 74 74 74 74 74 73 74 73 74 74 74 74 74 73 72 72 73 72 72 72 72 71 72 72 72
73 73 73 73 73 72 72 71 71 72 73 73 74 74 74 74 74 73 73 74 74 73 73 74 73 74 75 74 74 74 73 73 73 73 72 72 72 72 71 72 72 73
72 73 73 73 73 73 73 72 72 72 72 72 73 73 74 73 73 74 74 74 74 74 74 73 74 73 74 74 74 73 73 73 73 74 73 72 72 72 72 72 72 71
73 74 74 74 74 73 73 74 73 71 70 70 71 74 74 74 75 75 74 74 74 74 73 74 74 74 74 74 74 73 74 74 73 73 73 72 73 74 75 73 72 72
72 72 73 75 74 74 74 74 73 71 71 72 73 74 75 75 75 76 76 75 75 75 75 74 73 73 74 74 74 73 73 73 73 74 74 73 73 71 73 73 74 73
72 73 74 75 73 74 74 74 74 73 73 74 73 75 76 76 77 76 76 76 76 76 75 76 75 74 74 74 74 72 71 72 73 73 73 72 72 73 72 73 72 73
72 72 74 73 73 73 74 75 74 74 75 74 74 74 76 77 76 75 76 77 76 75 76 75 75 75 74 74 73 73 73 72 72 72 71 71 71 72 74 73 71 71
72 73 73 73 73 74 74 74 74 74 75 75 75 75 75 75 76 77 76 76 75 76 75 75 75 74 74 75 75 74 74 73 73 72 72 72 72 73 74 73 72 71
71 72 72 71 71 73 73 74 74 75 75 76 75 75 75 75 75 77 76 76 74 76 76 76 76 76 75 74 74 74 74 73 73 73 72 72 72 71 69 72 71 71
71 71 71 70 70 72 73 74 75 75 75 75 76 75 75 75 75 75 76 77 77 78 77 77 77 76 76 75 75 74 73 73 73 72 72 73 72 72 72 72 71 71
71 71 72 72 72 72 73 74 74 74 76 76 76 76 75 74 75 75 75 77 78 77 77 76 76 75 75 74 74 74 74 73 72 72 72 72 72 73 73 73 72 72
71 72 72 72 72 72 72 72 72 73 75 76 76 75 75 76 75 75 75 75 75 76 77 77 75 74 74 73 74 74 73 72 72 71 72 72 71 73 73 73 73 72
70 71 71 72 70 69 69 68 69 71 72 75 75 75 74 76 75 75 74 74 74 74 74 73 73 73 74 73 73 72 72 71 71 72 71 71 71 71 72 72 72 72
70 70 70 71 68 67 66 69 70 71 73 72 73 74 73 74 74 74 75 74 73 73 73 71 71 71 60 50 54 70 73 72 70 70 71 71 70 70 70 71 71 71
70 70 71 70 71 69 67 69 71 71 71 72 72 72 72 73 73 73 73 74 74 73 71 70 70 68 46 46 45 46 64 70 70 70 70 70 70 70 70 69 70 71
70 70 70 70 71 72 71 72 71 71 71 71 70 69 70 71 70 72 72 72 71 72 71 70 70 48 42 43 43 42 48 66 70 70 69 69 70 70 70 70 70 70
70 70 70 70 70 71 71 70 70 70 70 69 68 68 69 68 70 69 70 70 70 70 70 70 68 41 41 40 43 41 41 52 72 71 71 71 71 70 71 70 71 70
71 71 70 70 70 70 70 70 69 69 69 68 68 67 66 66 66 66 67 68 68 69 69 69 66 43 39 39 40 40 40 46 71 71 71 72 72 72 71 71 70 71
72 71 70 69 69 69 69 69 69 69 68 67 67 67 66 65 65 65 66 67 68 67 65 65 59 36 39 38 39 39 39 45 71 69 71 71 71 71 71 70 70 69
72 71 71 71 70 70 69 69 68 68 68 68 68 67 66 64 63 66 65 68 68 67 67 65 59 36 38 38 38 40 38 63 70 70 71 71 71 70 70 71 70 70
72 72 70 70 70 70 70 69 68 68 68 69 66 66 66 65 67 69 71 70 70 70 69 67 65 44 36 37 40 38 46 71 70 71 71 69 69 69 70 67 66 67
71 72 72 71 71 71 70 69 70 70 70 71 68 69 69 71 71 70 71 71 70 70 70 68 66 47 37 39 39 38 48 69 71 71 69 69 67 68 69 66 57 44
70 69 69 70 71 70 70 69 70 70 71 71 71 71 70 71 71 70 70 70 71 69 58 66 67 53 38 40 38 40 53 71 70 71 67 67 68 66 67 67 62 54
69 68 68 68 69 69 69 70 71 71 70 70 71 73 71 71 71 71 69 69 68 68 66 68 67 65 53 38 41 40 41 63 73 70 68 66 68 68 66 65 64 60
MSLP
1017.51 1017.59 1017.87 1018.03 1018.11 1018.19 1018.39 1018.55 1018.71 1018.95 1019.15 1019.31 1019.63 1019.79 1019.95 1020.03 1019.95 1020.03 1020.03 1020.07 1020.19 1020.35 1020.47 1020.55 1020.59 1020.63 1020.63 1020.67 1020.63 1020.51 1020.67 1020.87 1020.87 1020.75 1020.79 1020.75 1020.83 1020.83 1020.83 1020.79 1020.75 1020.51
1017.59 1017.71 1017.83 1018.03 1018.15 1018.23 1018.31 1018.47 1018.71 1018.91 1019.19 1019.35 1019.51 1019.75 1019.91 1020.07 1020.11 1020.07 1020.19 1020.23 1020.31 1020.47 1020.55 1020.67 1020.71 1020.75 1020.75 1020.75 1020.83 1020.79 1020.91 1021.03 1021.11 1020.95 1021.03 1021.03 1020.95 1021.03 1021.15 1021.11 1020.99 1020.83
1017.63 1017.83 1017.99 1018.23 1018.35 1018.47 1018.47 1018.55 1018.75 1018.91 1019.11 1019.35 1019.59 1019.75 1020.03 1020.11 1020.23 1020.19 1020.23 1020.31 1020.43 1020.59 1020.71 1020.79 1020.87 1020.91 1020.91 1020.95 1020.95 1020.95 1021.11 1021.23 1021.31 1021.23 1021.23 1021.31 1021.23 1021.23 1021.27 1021.19 1021.19 1021.15
1017.63 1017.71 1017.91 1018.19 1018.35 1018.63 1018.75 1018.83 1018.87 1018.95 1019.15 1019.43 1019.63 1019.75 1019.95 1020.11 1020.23 1020.35 1020.39 1020.47 1020.55 1020.71 1020.79 1020.87 1020.95 1020.95 1020.95 1021.07 1021.03 1021.11 1021.23 1021.23 1021.31 1021.35 1021.43 1021.43 1021.39 1021.39 1021.43 1021.31 1021.35 1021.23
1017.63 1017.75 1017.83 1018.11 1018.31 1018.55 1018.79 1018.99 1018.87 1018.95 1019.23 1019.35 1019.51 1019.67 1019.83 1020.07 1020.23 1020.31 1020.39 1020.51 1020.59 1020.75 1020.87 1020.99 1021.07 1021.15 1021.15 1021.15 1021.11 1021.27 1021.31 1021.39 1021.43 1021.35 1021.51 1021.67 1021.63 1021.63 1021.59 1021.51 1021.59 1021.55
1017.59 1017.63 1017.75 1017.95 1018.23 1018.51 1018.75 1018.91 1018.91 1019.07 1019.35 1019.63 1019.71 1019.55 1019.63 1019.83 1019.99 1020.15 1020.31 1020.47 1020.55 1020.75 1020.91 1020.95 1021.11 1021.15 1021.15 1021.27 1021.27 1021.31 1021.31 1021.39 1021.55 1021.47 1021.55 1021.67 1021.71 1021.63 1021.63 1021.71 1021.75 1021.75
1017.67 1017.71 1017.83 1017.87 1018.11 1018.43 1018.59 1018.75 1018.87 1019.11 1019.27 1019.39 1019.55 1019.63 1019.51 1019.67 1019.83 1019.99 1020.11 1020.27 1020.43 1020.59 1020.79 1020.95 1021.11 1021.23 1021.19 1021.23 1021.31 1021.47 1021.47 1021.55 1021.55 1021.51 1021.55 1021.63 1021.79 1021.91 1021.79 1021.75 1021.75 1021.87
1017.67 1017.71 1017.83 1017.87 1018.11 1018.35 1018.51 1018.71 1018.87 1018.95 1019.07 1019.19 1019.43 1019.47 1019.51 1019.55 1019.59 1019.79 1019.91 1020.03 1020.23 1020.39 1020.59 1020.75 1020.91 1021.07 1021.15 1021.11 1021.27 1021.51 1021.67 1021.67 1021.71 1021.63 1021.71 1021.83 1021.79 1021.83 1021.95 1021.95 1022.03 1021.95
1017.59 1017.71 1017.75 1017.91 1018.11 1018.23 1018.39 1018.51 1018.79 1018.87 1018.95 1019.11 1019.27 1019.47 1019.47 1019.47 1019.63 1019.75 1019.75 1019.83 1020.07 1020.27 1020.43 1020.63 1020.75 1020.95 1021.07 1021.11 1021.27 1021.35 1021.47 1021.63 1021.71 1021.75 1021.83 1021.95 1021.95 1021.95 1021.79 1021.95 1022.15 1022.19
1017.47 1017.51 1017.71 1017.83 1018.03 1018.07 1018.23 1018.35 1018.59 1018.75 1018.79 1018.99 1019.07 1019.27 1019.47 1019.55 1019.59 1019.63 1019.71 1019.79 1019.95 1020.11 1020.27 1020.47 1020.59 1020.79 1020.91 1020.95 1021.07 1021.19 1021.27 1021.43 1021.59 1021.71 1021.79 1021.87 1021.91 1021.87 1021.83 1021.99 1022.07 1022.19
1017.43 1017.51 1017.71 1017.91 1018.07 1017.95 1018.11 1018.19 1018.35 1018.51 1018.67 1018.83 1019.03 1019.23 1019.35 1019.51 1019.55 1019.51 1019.63 1019.67 1019.87 1019.87 1019.99 1020.15 1020.27 1020.43 1020.63 1020.83 1020.95 1021.07 1021.15 1021.31 1021.43 1021.51 1021.71 1021.79 1021.87 1021.99 1022.11 1022.03 1022.07 1022.19
1017.51 1017.59 1017.75 1017.95 1018.07 1018.15 1018.15 1018.11 1018.19 1018.35 1018.59 1018.71 1018.87 1019.11 1019.31 1019.39 1019.47 1019.47 1019.47 1019.55 1019.59 1019.55 1019.67 1019.83 1019.95 1020.19 1020.39 1020.55 1020.71 1020.91 1021.07 1021.23 1021.35 1021.51 1021.55 1021.59 1021.71 1021.79 1021.83 1021.95 1022.11 1022.15
1017.43 1017.55 1017.55 1017.75 1017.87 1018.07 1018.15 1018.19 1018.31 1018.39 1018.47 1018.59 1018.67 1018.83 1019.15 1019.31 1019.35 1019.39 1019.39 1019.31 1019.31 1019.39 1019.47 1019.63 1019.83 1020.11 1020.31 1020.55 1020.63 1020.71 1020.87 1021.03 1021.23 1021.31 1021.43 1021.55 1021.59 1021.55 1021.59 1021.71 1021.87 1022.03
1017.27 1017.35 1017.51 1017.71 1017.99 1018.23 1018.35 1018.47 1018.51 1018.51 1018.51 1018.43 1018.51 1018.75 1018.91 1018.95 1019.15 1019.27 1019.35 1019.39 1019.39 1019.47 1019.43 1019.55 1019.83 1020.07 1020.23 1020.43 1020.47 1020.51 1020.67 1020.87 1020.95 1021.19 1021.23 1021.31 1021.43 1021.47 1021.43 1021.51 1021.63 1021.75
1017.35 1017.43 1017.55 1017.59 1018.11 1018.47 1018.55 1018.83 1018.79 1018.71 1018.63 1018.43 1018.59 1018.71 1018.75 1018.75 1018.95 1019.15 1019.35 1019.43 1019.47 1019.55 1019.63 1019.79 1019.87 1019.99 1020.03 1020.23 1020.31 1020.43 1020.51 1020.67 1020.87 1020.99 1021.11 1021.19 1021.31 1021.35 1021.43 1021.47 1021.51 1021.59
1017.31 1017.51 1017.63 1017.75 1018.31 1018.43 1018.59 1018.59 1018.59 1018.51 1018.47 1018.63 1018.71 1018.71 1018.91 1019.03 1019.03 1019.07 1019.15 1019.27 1019.35 1019.47 1019.59 1019.79 1019.91 1020.07 1020.47 1020.67 1020.63 1020.35 1020.27 1020.39 1020.71 1020.91 1020.95 1020.99 1021.15 1021.27 1021.39 1021.39 1021.47 1021.55
1017.47 1017.55 1017.63 1017.79 1017.83 1018.07 1018.51 1018.43 1018.31 1018.39 1018.51 1018.55 1018.67 1018.79 1018.95 1019.03 1018.99 1019.03 1019.07 1019.03 1019.11 1019.31 1019.59 1019.79 1019.91 1020.15 1020.75 1020.91 1020.87 1020.79 1020.51 1020.39 1020.59 1020.67 1020.75 1020.83 1020.95 1021.07 1021.15 1021.31 1021.43 1021.51
1017.59 1017.71 1017.79 1017.75 1017.79 1017.83 1017.95 1017.99 1018.07 1018.23 1018.35 1018.47 1018.67 1018.91 1018.99 1018.99 1019.11 1019.07 1019.11 1019.23 1019.27 1019.35 1019.51 1019.63 1019.83 1020.71 1020.91 1020.95 1020.99 1020.99 1020.95 1020.55 1020.35 1020.47 1020.59 1020.67 1020.75 1020.87 1020.91 1021.03 1021.19 1021.31
1017.63 1017.71 1017.67 1017.79 1017.83 1017.83 1017.87 1017.99 1018.15 1018.23 1018.27 1018.55 1018.83 1018.83 1018.95 1019.11 1019.15 1019.19 1019.27 1019.27 1019.43 1019.47 1019.55 1019.63 1019.99 1021.19 1021.11 1021.23 1021.19 1021.15 1021.11 1020.91 1020.19 1020.19 1020.23 1020.31 1020.47 1020.63 1020.71 1020.87 1020.91 1021.03
1017.55 1017.63 1017.71 1017.79 1017.79 1017.79 1017.91 1018.03 1018.19 1018.31 1018.39 1018.55 1018.75 1018.95 1019.11 1019.07 1019.19 1019.39 1019.39 1019.43 1019.51 1019.55 1019.63 1019.79 1020.27 1021.27 1021.27 1021.27 1021.27 1021.35 1021.27 1021.15 1020.15 1020.11 1020.11 1020.15 1020.31 1020.39 1020.59 1020.67 1020.83 1020.83
1017.43 1017.63 1017.75 1017.87 1017.87 1017.91 1018.03 1018.07 1018.19 1018.27 1018.51 1018.79 1018.83 1018.91 1019.03 1019.07 1019.23 1019.39 1019.47 1019.51 1019.55 1019.67 1019.99 1020.23 1020.87 1021.71 1021.55 1021.51 1021.55 1021.39 1021.31 1020.99 1020.15 1020.19 1020.11 1020.19 1020.31 1020.51 1020.63 1020.79 1020.91 1021.07
1017.59 1017.71 1017.79 1017.87 1017.91 1017.99 1018.07 1018.11 1018.19 1018.31 1018.39 1018.39 1018.55 1018.75 1018.91 1019.27 1019.71 1019.55 1019.71 1019.43 1019.39 1019.55 1019.67 1020.07 1020.71 1021.35 1021.39 1021.39 1021.31 1021.23 1021.23 1020.43 1020.03 1020.15 1020.11 1020.15 1020.35 1020.59 1020.63 1020.75 1020.87 1021.03
1017.75 1017.67 1017.87 1017.87 1017.87 1017.87 1017.91 1017.95 1018.07 1018.15 1018.15 1018.15 1018.51 1018.67 1018.79 1018.95 1019.11 1019.11 1018.95 1019.07 1019.23 1019.27 1019.43 1019.79 1020.15 1021.07 1021.31 1021.35 1021.23 1021.27 1020.91 1019.99 1020.03 1019.95 1020.07 1020.27 1020.51 1020.67 1020.75 1021.15 1021.43 1021.43
1018.03 1017.87 1017.75 1017.79 1017.79 1017.63 1017.71 1017.87 1017.87 1017.87 1017.91 1017.91 1018.23 1018.31 1018.27 1018.31 1018.39 1018.63 1018.79 1018.91 1019.07 1019.15 1019.23 1019.51 1019.99 1020.91 1021.07 1021.07 1021.03 1021.03 1020.71 1019.99 1019.83 1019.79 1020.15 1020.35 1020.63 1020.75 1020.83 1021.35 1022.23 1022.43
1018.23 1018.19 1018.15 1017.95 1017.71 1017.71 1017.79 1017.83 1017.83 1017.79 1017.79 1017.83 1017.87 1017.95 1018.19 1018.27 1018.35 1018.55 1018.75 1018.79 1018.91 1019.19 1019.51 1019.47 1019.75 1020.63 1021.11 1020.99 1021.03 1020.95 1020.43 1019.79 1019.67 1019.75 1020.27 1020.39 1020.55 1020.87 1020.95 1021.19 1021.91 1022.51
1018.35 1018.35 1018.31 1018.27 1018.15 1018.03 1017.95 1017.83 1017.71 1017.75 1017.87 1017.87 1017.83 1017.75 1018.07 1018.15 1018.35 1018.39 1018.67 1018.79 1019.03 1019.23 1019.47 1019.35 1019.63 1020.03 1020.71 1021.03 1020.87 1020.71 1020.47 1019.99 1019.43 1019.71 1020.15 1020.47 1020.43 1020.55 1020.95 1021.27 1021.67 1022.39
Wind_Speed
6 6 6 6 6 7 7 8 7 7 7 6 6 6 5 5 6 7 7 6 6 6 6 5 5 4 4 5 4 5 6 6 6 6 6 6 6 7 6 7 6 5
6 6 6 5 6 6 7 7 7 7 8 7 6 6 6 6 6 6 7 7 7 6 6 6 5 5 4 5 4 5 5 5 5 4 5 6 5 6 6 6 6 5
6 7 7 7 6 7 8 8 7 7 7 7 7 6 6 5 6 6 6 6 7 6 6 5 5 5 5 5 4 5 5 5 6 6 6 6 5 5 5 5 5 5
7 7 7 7 7 7 6 7 7 7 7 8 7 7 7 6 6 6 6 6 6 6 6 5 5 5 5 5 5 5 5 5 5 5 5 5 5 5 5 5 5 5
6 6 7 7 7 7 7 7 8 8 7 7 8 8 8 8 7 7 6 6 6 6 6 6 6 5 5 5 5 5 5 5 4 4 5 5 4 4 4 4 5 5
5 5 7 8 8 8 7 7 7 7 7 5 6 7 9 9 8 8 7 7 6 6 6 6 6 5 5 5 4 4 4 4 4 4 5 5 4 3 3 4 4 5
6 6 7 8 9 8 8 6 6 8 8 7 6 6 8 9 9 8 8 7 7 7 7 6 6 5 4 4 5 5 4 4 4 3 4 5 4 4 3 3 3 4
7 6 7 7 9 9 8 7 7 7 8 7 7 6 7 8 10 8 8 8 8 7 7 7 6 6 5 4 5 5 4 3 3 3 4 4 2 4 4 2 2 2
7 7 7 8 8 9 9 8 7 7 8 8 7 6 6 6 7 8 9 9 8 8 7 6 6 6 4 4 4 5 5 5 3 3 3 3 3 3 3 3 2 2
7 7 7 8 9 8 9 9 7 6 7 8 7 7 7 6 7 8 8 8 8 8 8 7 7 6 5 4 4 4 4 5 5 4 3 2 2 2 3 2 2 2
7 6 7 7 7 6 9 10 9 7 7 8 7 7 7 7 7 7 7 8 7 8 8 7 6 6 5 4 4 3 3 3 4 3 3 3 2 1 1 1 2 1
6 6 6 7 6 5 7 8 8 8 7 7 8 8 8 7 7 7 7 8 8 7 7 7 6 5 5 4 4 4 4 4 3 3 3 3 3 3 3 3 2 2
7 5 6 6 6 6 6 7 7 7 8 8 8 9 8 8 8 8 7 7 7 7 7 7 6 5 4 4 5 5 5 5 4 4 4 4 4 5 5 5 5 4
6 7 6 6 6 4 5 4 5 7 8 8 8 9 9 9 8 8 6 5 5 6 6 6 6 5 5 5 6 6 5 5 4 4 5 5 5 5 5 5 6 5
5 5 5 7 5 5 5 6 8 8 9 7 7 7 6 7 7 7 7 7 7 6 6 5 5 5 5 5 5 6 5 5 4 5 5 5 5 5 4 5 5 5
5 5 6 6 7 7 5 7 10 10 8 7 8 7 5 5 6 7 7 7 6 6 6 5 4 3 5 5 5 2 5 4 5 5 5 5 5 4 4 4 4 4
3 4 4 5 7 8 9 11 10 8 8 8 7 6 7 7 6 7 7 6 6 6 6 5 5 4 10 6 5 4 4 5 5 5 5 5 5 5 4 4 4 4
2 3 3 4 4 5 6 6 6 6 7 7 6 6 6 6 6 6 5 4 4 4 5 4 3 8 8 6 4 5 5 4 4 4 4 4 4 4 4 4 4 3
1 2 3 3 4 4 4 4 5 6 6 5 6 5 4 4 5 5 5 5 5 6 4 4 4 5 6 5 6 6 6 6 4 4 4 4 3 4 3 3 3 3
2 1 1 2 2 3 4 4 5 6 5 4 4 4 4 4 4 5 5 5 4 4 3 3 4 5 4 3 3 4 6 6 3 3 2 2 2 2 2 2 1 1
2 3 2 2 2 2 4 5 5 5 5 5 6 6 5 5 5 6 4 5 6 6 5 3 4 3 4 4 5 5 7 8 2 2 2 3 2 2 2 1 1 0
2 2 1 2 3 4 4 5 6 6 6 6 6 5 4 1 3 4 7 8 8 8 7 6 4 4 3 4 5 5 6 4 3 3 3 2 3 2 2 1 1 0
3 1 2 2 3 4 5 5 5 6 6 6 6 6 7 9 10 9 8 8 8 7 7 7 5 4 4 5 6 7 6 3 3 3 3 3 2 2 3 4 5 4
3 3 1 1 3 3 4 4 5 5 6 6 7 8 9 8 8 7 7 7 7 7 6 7 6 5 5 5 6 7 7 2 3 2 2 2 3 3 3 6 8 10
3 3 3 3 2 1 1 4 5 6 6 6 6 6 7 7 8 7 7 7 6 6 4 4 7 6 5 7 7 8 6 3 3 3 3 3 3 4 3 5 6 8
3 4 3 3 4 3 2 3 4 5 7 7 7 7 7 7 8 7 8 7 7 8 6 5 7 6 5 5 6 6 8 6 2 3 4 4 3 4 5 5 6 6
Wind_Direction
156 149 148 148 144 140 140 137 134 133 128 129 129 128 118 112 110 104 101 92 86 84 80 76 78 74 77 73 56 65 69 61 58 52 54 55 53 46 49 48 41 39
157 144 145 146 143 146 143 138 134 133 130 131 130 129 123 124 120 115 110 109 101 92 88 85 82 83 76 75 70 75 78 74 69 66 69 61 69 71 61 55 50 41
161 154 152 153 155 157 149 143 142 137 134 130 134 137 134 134 132 124 122 114 109 104 98 91 89 89 89 88 83 78 81 81 74 68 66 64 59 64 65 59 64 51
172 162 151 148 153 160 158 156 150 144 140 143 147 142 142 143 138 133 128 128 120 115 105 99 95 89 88 93 93 86 83 80 78 81 81 76 71 71 64 64 61 58
174 160 149 149 157 164 172 179 158 147 149 148 148 150 148 147 149 143 141 136 132 126 122 116 110 106 106 97 94 100 101 97 95 80 75 78 75 70 72 74 73 72
177 176 165 157 161 172 181 185 160 144 140 150 166 162 150 153 151 147 144 142 139 132 132 126 121 117 110 108 105 105 111 102 102 111 101 96 98 90 90 88 83 79
183 184 176 164 161 175 184 176 161 157 159 168 176 180 157 153 152 150 145 143 142 143 137 135 129 129 127 125 114 110 99 100 112 106 110 101 101 109 107 90 79 84
190 188 181 174 163 171 182 169 167 171 167 171 177 166 168 157 153 148 146 147 143 140 142 139 141 133 142 135 127 123 112 107 110 104 89 97 105 98 89 81 88 84
188 188 181 175 172 173 182 177 173 176 176 172 169 159 162 162 149 155 152 149 148 147 144 143 139 139 143 145 137 145 137 128 124 114 115 119 131 119 121 100 116 101
188 187 181 182 182 186 180 177 178 181 180 179 167 162 160 158 161 164 161 156 154 151 149 149 148 149 155 157 151 144 151 140 142 141 142 136 114 136 124 149 130 141
191 183 182 178 190 195 187 180 183 189 186 183 168 169 165 166 170 170 169 168 164 163 156 156 157 157 154 157 155 166 149 142 152 145 151 162 158 157 181 205 171 212
186 184 176 182 184 202 199 196 192 194 187 189 180 177 170 176 178 178 185 180 183 176 169 168 168 163 172 174 165 163 162 153 154 166 188 187 178 205 198 189 207 206
192 185 185 188 189 199 206 206 203 203 200 192 188 187 182 184 190 190 192 199 188 184 179 174 169 174 177 182 188 183 182 178 177 187 202 213 218 221 215 215 214 203
209 206 198 192 202 207 217 222 229 215 213 207 192 190 191 194 188 190 181 195 184 188 189 172 169 185 193 196 205 198 198 197 199 209 220 214 220 230 231 227 224 221
200 210 218 216 189 215 224 214 228 229 221 202 193 190 194 192 185 191 192 193 188 190 188 181 189 190 191 197 202 204 209 201 212 218 215 217 219 220 217 225 229 223
196 194 209 198 184 209 215 233 221 213 202 193 198 200 190 213 203 201 206 207 201 192 186 181 179 175 84 44 334 273 205 203 185 206 205 204 212 218 213 222 234 232
172 184 194 197 203 189 200 213 209 203 201 198 200 207 204 207 209 205 209 213 210 198 192 191 191 139 135 171 194 280 282 216 210 201 198 200 207 216 228 215 211 212
150 171 200 196 203 202 194 202 203 204 203 202 199 203 201 198 197 202 200 203 219 213 208 207 150 92 127 147 175 206 252 247 203 210 198 201 202 209 211 213 220 206
192 210 201 204 218 217 212 206 213 215 208 194 197 203 205 204 207 205 210 211 219 219 211 198 141 95 123 152 171 188 212 250 211 188 189 181 192 200 212 217 221 214
147 155 195 213 223 212 207 204 211 213 202 197 189 185 197 207 213 218 218 209 204 200 179 129 103 83 96 107 134 175 187 227 230 182 208 204 198 196 197 219 218 274
115 130 147 152 178 182 194 208 209 203 192 185 200 209 201 210 207 203 184 167 143 116 100 99 89 115 122 129 140 174 177 233 193 186 201 184 172 158 183 159 166 140
64 86 117 158 174 184 195 196 194 200 208 202 197 193 187 135 270 179 169 163 147 142 150 137 122 86 97 111 128 151 184 220 177 195 206 201 171 165 186 172 130 314
23 79 118 196 190 198 197 191 186 191 188 186 182 185 179 179 176 167 158 146 151 153 147 139 128 129 135 145 153 174 218 223 179 208 182 189 170 169 144 80 48 18
13 349 289 182 203 199 176 179 183 184 178 182 178 176 172 164 159 153 152 152 153 151 145 133 122 123 161 158 179 201 258 234 201 190 163 168 147 128 118 87 63 35
344 351 350 319 255 167 170 173 182 179 172 178 173 173 165 165 166 160 157 156 146 128 60 129 128 127 152 172 202 209 231 186 196 148 166 168 161 133 114 103 88 60
327 320 326 328 334 338 291 242 200 188 180 186 182 188 177 176 177 166 166 159 148 148 155 155 139 143 141 173 204 219 250 276 162 180 158 167 184 151 142 124 112 102